FW9150 Weather Reports


time (UTC)temp
C
wind
direction
speed
KPH
gust
KPH
rain 1hr
cm
rain 24hr
cm
rain mn
cm
humidity
%
barometer
mb
20260508220915 21 352 1.6 4.8 0.00 0.00 0.00 36 1023.8
20260508215013 21 259 0.0 3.2 0.00 0.00 0.00 34 1023.8
20260508214016 21 121 0.0 3.2 0.00 0.00 0.00 33 1023.9
20260508212131 21 166 4.8 6.4 0.00 0.00 0.00 33 1024.3
20260508211215 21 179 3.2 6.4 0.00 0.00 0.00 32 1024.1
20260508210214 21 190 0.0 3.2 0.00 0.00 0.00 30 1024.1
20260508205217 22 174 3.2 6.4 0.00 0.00 0.00 30 1024.1
20260508204229 23 155 0.0 6.4 0.00 0.00 0.00 29 1024.2
20260508203229 23 157 0.0 4.8 0.00 0.00 0.00 30 1024.2
20260508201214 22 225 3.2 3.2 0.00 0.00 0.00 29 1024.2
20260508200214 22 202 1.6 3.2 0.00 0.00 0.00 29 1024.5
20260508194215 23 168 3.2 6.4 0.00 0.00 0.00 30 1024.5
20260508193216 22 225 1.6 3.2 0.00 0.00 0.00 28 1024.6
20260508192213 23 175 4.8 9.7 0.00 0.00 0.00 29 1024.4
20260508191213 22 181 1.6 11.3 0.00 0.00 0.00 29 1024.5
20260508184214 23 170 1.6 4.8 0.00 0.00 0.00 26 1024.6
20260508183213 22 157 0.0 0.0 0.00 0.00 0.00 25 1024.8
20260508181214 22 153 4.8 6.4 0.00 0.00 0.00 25 1024.8
20260508180215 22 213 3.2 4.8 0.00 0.00 0.00 27 1024.8
20260508175216 21 180 0.0 3.2 0.00 0.00 0.00 28 1024.7
20260508174215 21 247 3.2 4.8 0.00 0.00 0.00 28 1024.8
20260508173214 21 218 0.0 1.6 0.00 0.00 0.00 29 1024.8
20260508172216 21 180 0.0 3.2 0.00 0.00 0.00 29 1024.7
20260508171214 21 180 0.0 0.0 0.00 0.00 0.00 31 1024.8
20260508170213 21 180 0.0 1.6 0.00 0.00 0.00 32 1024.7
20260508164214 20 315 0.0 3.2 0.00 0.00 0.00 32 1024.8
20260508163215 20 180 0.0 0.0 0.00 0.00 0.00 33 1024.8
20260508162214 19 157 0.0 1.6 0.00 0.00 0.00 36 1024.7
20260508161216 18 141 0.0 4.8 0.00 0.00 0.00 40 1024.7
20260508160214 16 180 0.0 1.6 0.00 0.00 0.00 47 1024.8
20260508155229 15 180 0.0 1.6 0.00 0.00 0.00 45 1024.8
20260508154216 15 180 0.0 1.6 0.00 0.00 0.00 48 1024.8
20260508153214 13 337 0.0 0.0 0.00 0.00 0.00 60 1024.7
20260508152313 13 337 0.0 0.0 0.00 0.00 0.00 65 1024.7
20260508150314 12 337 0.0 0.0 0.00 0.00 0.00 63 1024.6
20260508145315 12 337 0.0 0.0 0.00 0.00 0.00 66 1024.6
20260508144315 11 337 0.0 0.0 0.00 0.00 0.00 68 1024.6
20260508143414 11 337 0.0 0.0 0.00 0.00 0.00 68 1024.5
20260508142415 11 337 0.0 0.0 0.00 0.00 0.00 70 1024.4
20260508141513 10 337 0.0 0.0 0.00 0.00 0.00 72 1024.3
20260508135613 10 337 0.0 0.0 0.00 0.00 0.00 73 1024.3
20260508134615 10 337 0.0 0.0 0.00 0.00 0.00 72 1024.2
20260508133614 10 337 0.0 0.0 0.00 0.00 0.00 73 1024.1
20260508132614 9 270 0.0 1.6 0.00 0.00 0.00 76 1024.0
20260508131613 9 157 0.0 0.0 0.00 0.00 0.00 76 1024.0
20260508130614 9 157 0.0 0.0 0.00 0.00 0.00 77 1024.1
20260508124615 9 157 0.0 0.0 0.00 0.00 0.00 77 1024.0
20260508123713 9 157 0.0 0.0 0.00 0.00 0.00 76 1024.1
20260508122715 9 157 0.0 0.0 0.00 0.00 0.00 76 1024.0
20260508121713 9 157 0.0 0.0 0.00 0.00 0.00 77 1024.0
20260508120714 9 157 0.0 0.0 0.00 0.00 0.00 77 1024.0
20260508115716 9 157 0.0 0.0 0.00 0.00 0.00 77 1024.0
20260508113713 8 157 0.0 0.0 0.00 0.00 0.00 77 1024.0
20260508111714 8 157 0.0 0.0 0.00 0.00 0.00 80 1024.1
20260508110713 8 157 0.0 0.0 0.00 0.00 0.00 79 1024.0
20260508103739 10 157 0.0 0.0 0.00 0.00 0.00 78 1024.2
20260508103513 9 157 0.0 0.0 0.00 0.00 0.00 78 1024.1
20260508102516 9 157 0.0 0.0 0.00 0.00 0.00 78 1024.0
20260508101515 9 157 0.0 0.0 0.00 0.00 0.00 79 1024.2
20260508100613 9 157 0.0 0.0 0.00 0.00 0.00 77 1024.1
20260508095613 9 157 0.0 0.0 0.00 0.00 0.00 76 1024.1
20260508093713 10 157 0.0 0.0 0.00 0.00 0.00 74 1024.1
20260508092713 10 157 0.0 0.0 0.00 0.00 0.00 71 1024.1
20260508090715 10 157 0.0 0.0 0.00 0.00 0.00 69 1024.1
20260508085813 10 157 0.0 0.0 0.00 0.00 0.00 68 1024.1
20260508084817 10 157 0.0 0.0 0.00 0.00 0.00 67 1024.1
20260508083814 10 157 0.0 0.0 0.00 0.00 0.00 66 1024.1
20260508082814 10 157 0.0 0.0 0.00 0.00 0.00 67 1024.2
20260508081816 9 157 0.0 0.0 0.00 0.00 0.00 71 1024.3
20260508080813 10 157 0.0 0.0 0.00 0.00 0.00 72 1024.4
20260508075815 10 157 0.0 0.0 0.00 0.00 0.00 71 1024.5
20260508074814 10 157 0.0 0.0 0.00 0.00 0.00 71 1024.5
20260508072815 10 157 0.0 0.0 0.00 0.00 0.00 71 1024.7
20260508071816 9 157 0.0 0.0 0.00 0.00 0.00 74 1024.7
20260508070814 10 157 0.0 0.0 0.00 0.00 0.00 74 1024.7
20260508065827 10 157 0.0 0.0 0.00 0.00 0.00 76 1024.8
20260508064845 10 157 0.0 0.0 0.00 0.00 0.00 77 1024.7
20260508063826 10 157 0.0 0.0 0.00 0.00 0.00 78 1024.8
20260508062842 10 157 0.0 0.0 0.00 0.00 0.00 78 1024.9
20260508061828 10 157 0.0 0.0 0.00 0.00 0.00 79 1024.8
20260508060729 10 157 0.0 0.0 0.00 0.00 0.00 79 1024.9
20260508055727 10 157 0.0 0.0 0.00 0.00 0.00 78 1025.0
20260508054729 10 157 0.0 0.0 0.00 0.00 0.00 77 1025.0
20260508052728 11 157 0.0 0.0 0.00 0.00 0.00 78 1025.0
20260508051728 11 157 0.0 0.0 0.00 0.00 0.00 78 1025.0
20260508050827 11 157 0.0 0.0 0.00 0.00 0.00 77 1024.9
20260508045927 11 157 0.0 0.0 0.00 0.00 0.00 77 1025.1
20260508044928 11 157 0.0 0.0 0.00 0.00 0.00 76 1025.1
20260508044027 11 157 0.0 0.0 0.00 0.00 0.00 76 1024.9
20260508043126 12 157 0.0 0.0 0.00 0.00 0.00 76 1024.9
20260508042143 12 157 0.0 0.0 0.00 0.00 0.00 75 1024.8
20260508041228 12 157 0.0 0.0 0.00 0.00 0.00 74 1024.7
20260508040228 12 157 0.0 0.0 0.00 0.00 0.00 73 1024.7
20260508035228 12 157 0.0 0.0 0.00 0.00 0.00 73 1024.7
20260508034228 13 157 0.0 0.0 0.00 0.00 0.00 72 1024.6
20260508033227 13 157 0.0 0.0 0.00 0.00 0.00 71 1024.6
20260508031229 14 157 0.0 0.0 0.00 0.00 0.00 68 1024.4
20260508030227 14 157 0.0 0.0 0.00 0.00 0.00 66 1024.5
20260508025228 15 157 0.0 0.0 0.00 0.00 0.00 63 1024.3
20260508024226 15 157 0.0 0.0 0.00 0.00 0.00 63 1024.3
20260508023227 15 157 0.0 0.0 0.00 0.00 0.00 60 1024.2
20260508022326 16 157 0.0 0.0 0.00 0.00 0.00 59 1024.2
20260508021327 16 157 0.0 0.0 0.00 0.00 0.00 58 1024.2
20260508020329 16 157 0.0 0.0 0.00 0.00 0.00 58 1024.2
20260508015327 17 157 0.0 0.0 0.00 0.00 0.00 58 1024.3
20260508014328 17 157 0.0 0.0 0.00 0.00 0.00 59 1024.2
20260508013328 17 157 0.0 0.0 0.00 0.00 0.00 59 1024.1
20260508012328 17 157 0.0 0.0 0.00 0.00 0.00 59 1024.0
20260508011328 17 157 0.0 1.6 0.00 0.00 0.00 59 1024.0
20260508005329 18 150 0.0 1.6 0.00 0.00 0.00 57 1024.3
20260508004329 18 164 3.2 4.8 0.00 0.00 0.00 55 1024.2
20260508003328 18 157 0.0 0.0 0.00 0.00 0.00 54 1024.1
20260508002327 18 135 0.0 1.6 0.00 0.00 0.00 53 1024.1
20260508001329 18 225 0.0 3.2 0.00 0.00 0.00 51 1024.1
20260508000327 19 185 0.0 1.6 0.00 0.00 0.00 49 1024.1
20260507235327 19 180 4.8 8.0 0.00 0.00 0.00 50 1024.1
20260507234328 19 210 0.0 0.0 0.00 0.00 0.00 48 1024.0
20260507233327 20 157 0.0 1.6 0.00 0.00 0.00 45 1024.1
20260507231326 20 187 0.0 1.6 0.00 0.00 0.00 46 1024.2
20260507225343 20 180 0.0 0.0 0.00 0.00 0.00 45 1024.5
20260507223328 20 284 0.0 3.2 0.00 0.00 0.00 44 1024.5
20260507222344 20 169 1.6 3.2 0.00 0.00 0.00 45 1024.6
20260507221428 20 126 0.0 3.2 0.00 0.00 0.00 45 1024.7